VIR74Y KMCO-EGCC

Flight info

Callsign VIR74Y
Flight time N/A
Altitude 37000
Route FATHE4 VIYAP Q87 NOWAE DCT BBOBO Q22 RBV Q430 ACK DCT BRADD N349B JOOPY/M085F390 NATS BEXET/N0479F390 DCT BOFUM Q37 MALUD
Aircraft A35K/H-SDE2E3GHIJ3J4J5LM1ORWXY/LB1D1

Departure

Time 2026-04-23 20:30
Airport Orlando International Airport (KMCO)

Arrival

Time N/A
Airport Manchester Airport (EGCC)
Time Latitude Longitude Altitude Speed Heading
2026-04-23 20:14 28.42668 -81.30372 128 ft 0 kts 61°
2026-04-23 20:17 28.42661 -81.30385 102 ft 3 kts 61°
2026-04-23 20:17 28.42651 -81.30405 99 ft 3 kts 61°
2026-04-23 20:18 28.42642 -81.30424 100 ft 3 kts 72°
2026-04-23 20:18 28.42639 -81.30445 99 ft 3 kts 108°
2026-04-23 20:18 28.42647 -81.30460 99 ft 2 kts 158°
2026-04-23 20:18 28.42657 -81.30464 99 ft 2 kts 166°
2026-04-23 20:19 28.42676 -81.30469 100 ft 3 kts 166°
2026-04-23 20:19 28.42685 -81.30472 99 ft 0 kts 166°
2026-04-23 20:22 28.42675 -81.30469 100 ft 4 kts 166°
2026-04-23 20:23 28.42646 -81.30457 99 ft 9 kts 158°
2026-04-23 20:23 28.42583 -81.30412 102 ft 11 kts 156°
2026-04-23 20:23 28.42513 -81.30403 104 ft 9 kts 179°
2026-04-23 20:23 28.42417 -81.30402 102 ft 13 kts 179°
2026-04-23 20:24 28.42359 -81.30356 104 ft 11 kts 102°
2026-04-23 20:24 28.42358 -81.30265 104 ft 13 kts 88°
2026-04-23 20:24 28.42360 -81.30122 101 ft 21 kts 89°
2026-04-23 20:24 28.42361 -81.29956 100 ft 21 kts 89°
2026-04-23 20:25 28.42363 -81.29789 100 ft 16 kts 89°
2026-04-23 20:25 28.42400 -81.29705 103 ft 12 kts 20°
2026-04-23 20:25 28.42489 -81.29702 102 ft 14 kts 359°
2026-04-23 20:25 28.42611 -81.29703 102 ft 23 kts 359°
2026-04-23 20:26 28.42783 -81.29705 102 ft 25 kts 359°
2026-04-23 20:26 28.42962 -81.29706 103 ft 26 kts
2026-04-23 20:26 28.43148 -81.29708 103 ft 27 kts 359°
2026-04-23 20:26 28.43337 -81.29710 103 ft 28 kts 359°
2026-04-23 20:27 28.43470 -81.29712 102 ft 12 kts 359°
2026-04-23 20:27 28.43527 -81.29709 105 ft 7 kts 19°
2026-04-23 20:27 28.43549 -81.29666 105 ft 6 kts 82°
2026-04-23 20:27 28.43548 -81.29617 105 ft 6 kts 96°
2026-04-23 20:28 28.43521 -81.29590 104 ft 6 kts 158°
2026-04-23 20:28 28.43490 -81.29586 105 ft 0 kts 180°
2026-04-23 20:29 28.43455 -81.29586 104 ft 25 kts 180°
2026-04-23 20:29 28.43039 -81.29582 103 ft 93 kts 179°
2026-04-23 20:30 28.42189 -81.29572 102 ft 149 kts 179°
2026-04-23 20:30 28.39819 -81.29537 1201 ft 163 kts 176°
2026-04-23 20:30 28.38678 -81.29496 1727 ft 171 kts 174°
2026-04-23 20:31 28.37498 -81.29175 1946 ft 180 kts 147°
2026-04-23 20:31 28.36475 -81.28260 2189 ft 195 kts 134°
2026-04-23 20:31 28.35465 -81.27120 2454 ft 214 kts 136°
2026-04-23 20:31 28.34307 -81.25975 2904 ft 229 kts 137°
2026-04-23 20:32 28.33069 -81.24735 3356 ft 246 kts 137°
2026-04-23 20:32 28.31833 -81.23375 4098 ft 246 kts 131°
2026-04-23 20:32 28.30683 -81.21873 4583 ft 258 kts 129°
2026-04-23 20:32 28.29702 -81.20171 5170 ft 264 kts 116°
2026-04-23 20:33 28.29212 -81.18155 5759 ft 270 kts 94°
2026-04-23 20:33 28.29528 -81.16050 6318 ft 276 kts 66°
2026-04-23 20:33 28.30734 -81.14356 6881 ft 281 kts 35°
2026-04-23 20:33 28.32556 -81.13569 7406 ft 284 kts
2026-04-23 20:34 28.34502 -81.13861 8045 ft 284 kts 340°
2026-04-23 20:34 28.36158 -81.15040 8752 ft 282 kts 318°
2026-04-23 20:34 28.37664 -81.16477 9436 ft 284 kts 319°
2026-04-23 20:34 28.39205 -81.17888 10163 ft 285 kts 321°
2026-04-23 20:35 28.40817 -81.19286 10535 ft 299 kts 321°
2026-04-23 20:35 28.42548 -81.20694 10816 ft 313 kts 323°
2026-04-23 20:35 28.44401 -81.22100 11079 ft 328 kts 326°
2026-04-23 20:35 28.46485 -81.23286 11307 ft 344 kts 339°
2026-04-23 20:36 28.48864 -81.23920 11556 ft 358 kts 349°
2026-04-23 20:36 28.51368 -81.24323 11792 ft 370 kts 351°
2026-04-23 20:36 28.53961 -81.24692 12082 ft 379 kts 351°
2026-04-23 20:36 28.56558 -81.25049 12509 ft 383 kts 352°
2026-04-23 20:37 28.59220 -81.25411 12955 ft 386 kts 351°
2026-04-23 20:37 28.61900 -81.25773 13437 ft 389 kts 352°
2026-04-23 20:37 28.64597 -81.26137 13905 ft 392 kts 351°
2026-04-23 20:37 28.67314 -81.26505 14300 ft 394 kts 351°
2026-04-23 20:38 28.70053 -81.26878 14712 ft 396 kts 351°
2026-04-23 20:38 28.72801 -81.27254 15162 ft 399 kts 352°
2026-04-23 20:38 28.75568 -81.27631 15561 ft 401 kts 351°
2026-04-23 20:38 28.78351 -81.28012 15971 ft 404 kts 352°
2026-04-23 20:39 28.81156 -81.28394 16385 ft 407 kts 351°
2026-04-23 20:39 28.83942 -81.28774 16794 ft 409 kts 351°
2026-04-23 20:39 28.86787 -81.29110 17234 ft 412 kts 354°
2026-04-23 20:39 28.89662 -81.29338 17622 ft 415 kts 354°
2026-04-23 20:40 28.92549 -81.29557 18015 ft 417 kts 354°
2026-04-23 20:40 28.95462 -81.29791 18393 ft 420 kts 354°
2026-04-23 20:40 28.98380 -81.30033 18741 ft 422 kts 354°
2026-04-23 20:40 29.01314 -81.30300 19080 ft 424 kts 353°
2026-04-23 20:41 29.04259 -81.30628 19415 ft 426 kts 352°
2026-04-23 20:41 29.07213 -81.30965 19753 ft 428 kts 352°
2026-04-23 20:41 29.10181 -81.31302 20089 ft 430 kts 352°
2026-04-23 20:41 29.13173 -81.31592 20414 ft 432 kts 354°
2026-04-23 20:42 29.16183 -81.31759 20735 ft 435 kts 355°
2026-04-23 20:42 29.19173 -81.31911 21064 ft 437 kts 355°
2026-04-23 20:42 29.22218 -81.32076 21373 ft 438 kts 355°
2026-04-23 20:42 29.25271 -81.32249 21700 ft 440 kts 355°
2026-04-23 20:43 29.28345 -81.32427 22012 ft 443 kts 355°
2026-04-23 20:43 29.31433 -81.32609 22327 ft 445 kts 354°
2026-04-23 20:43 29.34530 -81.32796 22636 ft 447 kts 354°
2026-04-23 20:43 29.37645 -81.32983 22937 ft 448 kts 354°
2026-04-23 20:44 29.40765 -81.33171 23258 ft 450 kts 354°
2026-04-23 20:44 29.43904 -81.33358 23557 ft 452 kts 354°
2026-04-23 20:44 29.47051 -81.33548 23802 ft 454 kts 354°
2026-04-23 20:44 29.50173 -81.33738 24031 ft 456 kts 354°
2026-04-23 20:45 29.53352 -81.33932 24271 ft 458 kts 354°
2026-04-23 20:45 29.56537 -81.34125 24484 ft 460 kts 355°
2026-04-23 20:45 29.59749 -81.34320 24689 ft 462 kts 355°
2026-04-23 20:45 29.62970 -81.34514 24930 ft 464 kts 355°
2026-04-23 20:46 29.66199 -81.34706 25167 ft 465 kts 355°
2026-04-23 20:46 29.69432 -81.34890 25401 ft 467 kts 355°
2026-04-23 20:46 29.72686 -81.35074 25639 ft 468 kts 355°
2026-04-23 20:46 29.75947 -81.35259 25878 ft 470 kts 355°
2026-04-23 20:47 29.79226 -81.35445 26124 ft 472 kts 355°
2026-04-23 20:47 29.82518 -81.35631 26357 ft 474 kts 355°
2026-04-23 20:47 29.85822 -81.35819 26596 ft 476 kts 356°
2026-04-23 20:47 29.89140 -81.36010 26821 ft 478 kts 355°
2026-04-23 20:48 29.92465 -81.36199 27071 ft 479 kts 356°
2026-04-23 20:48 29.95764 -81.36387 27327 ft 481 kts 356°
2026-04-23 20:48 29.99120 -81.36579 27587 ft 483 kts 356°
2026-04-23 20:48 30.02482 -81.36773 27832 ft 484 kts 356°
2026-04-23 20:49 30.05857 -81.36968 28081 ft 486 kts 355°
2026-04-23 20:49 30.09245 -81.37160 28317 ft 488 kts 356°
2026-04-23 20:49 30.12642 -81.37354 28551 ft 490 kts 356°
2026-04-23 20:49 30.16060 -81.37548 28757 ft 492 kts 356°
2026-04-23 20:50 30.19485 -81.37747 28990 ft 494 kts 356°
2026-04-23 20:50 30.22925 -81.37949 29221 ft 495 kts 356°
2026-04-23 20:50 30.26372 -81.38150 29452 ft 497 kts 356°
2026-04-23 20:50 30.29833 -81.38351 29679 ft 499 kts 356°
2026-04-23 20:51 30.33302 -81.38551 29905 ft 500 kts 356°
2026-04-23 20:51 30.36781 -81.38753 30186 ft 501 kts 356°
2026-04-23 20:51 30.40222 -81.38952 30490 ft 499 kts 356°
2026-04-23 20:51 30.43691 -81.39149 30833 ft 498 kts 356°
2026-04-23 20:52 30.47147 -81.39348 31145 ft 497 kts 355°
2026-04-23 20:52 30.50597 -81.39536 31472 ft 496 kts 356°
2026-04-23 20:52 30.54046 -81.39715 31792 ft 495 kts 356°
2026-04-23 20:52 30.57489 -81.39892 32121 ft 494 kts 356°
2026-04-23 20:53 30.60918 -81.40070 32435 ft 493 kts 356°
2026-04-23 20:53 30.64355 -81.40247 32760 ft 492 kts 356°
2026-04-23 20:53 30.67778 -81.40432 33081 ft 491 kts 356°
2026-04-23 20:53 30.71182 -81.40617 33421 ft 489 kts 356°
2026-04-23 20:54 30.74579 -81.40793 33796 ft 487 kts 356°
2026-04-23 20:54 30.77964 -81.40972 34095 ft 487 kts 356°
2026-04-23 20:54 30.81342 -81.41153 34351 ft 486 kts 356°
2026-04-23 20:54 30.84715 -81.41333 34616 ft 485 kts 356°
2026-04-23 20:55 30.88043 -81.41513 34871 ft 484 kts 356°
2026-04-23 20:55 30.91400 -81.41690 35135 ft 483 kts 356°
2026-04-23 20:55 30.94757 -81.41865 35393 ft 482 kts 356°
2026-04-23 20:55 30.98101 -81.42042 35673 ft 480 kts 356°
2026-04-23 20:56 31.01429 -81.42219 35986 ft 478 kts 356°
2026-04-23 20:56 31.04747 -81.42398 36241 ft 477 kts 356°
2026-04-23 20:56 31.08065 -81.42573 36457 ft 477 kts 356°
2026-04-23 20:56 31.11369 -81.42750 36693 ft 476 kts 356°
2026-04-23 20:57 31.14674 -81.42929 36928 ft 475 kts 356°
2026-04-23 20:57 31.17979 -81.43106 37083 ft 476 kts 356°
2026-04-23 20:57 31.24653 -81.43464 37102 ft 480 kts 357°
2026-04-23 20:58 31.31303 -81.43806 37098 ft 477 kts 357°
2026-04-23 20:58 31.37940 -81.44144 37111 ft 477 kts 357°
2026-04-23 20:59 31.44577 -81.44477 37101 ft 477 kts 357°
2026-04-23 20:59 31.51203 -81.44809 37092 ft 476 kts 357°
2026-04-23 21:00 31.57779 -81.45153 37093 ft 475 kts 357°
2026-04-23 21:00 31.64392 -81.45494 37080 ft 476 kts 358°
2026-04-23 21:01 31.70965 -81.44552 37070 ft 477 kts 13°
2026-04-23 21:01 31.77148 -81.41689 37071 ft 480 kts 30°
2026-04-23 21:02 31.82178 -81.36631 37068 ft 483 kts 50°
2026-04-23 21:02 31.85909 -81.30037 37061 ft 487 kts 59°
2026-04-23 21:03 31.89287 -81.23104 37059 ft 489 kts 59°
2026-04-23 21:03 31.92753 -81.16213 37054 ft 489 kts 58°
2026-04-23 21:04 31.96317 -81.09390 37051 ft 489 kts 56°
2026-04-23 21:04 32.00697 -81.03336 37056 ft 484 kts 39°
2026-04-23 21:05 32.06269 -80.98953 37057 ft 480 kts 26°
2026-04-23 21:05 32.12238 -80.95545 37060 ft 478 kts 24°
2026-04-23 21:06 32.18308 -80.92306 37084 ft 478 kts 23°
2026-04-23 21:06 32.24350 -80.89006 37087 ft 479 kts 24°
2026-04-23 21:07 32.30384 -80.85630 37094 ft 480 kts 24°
2026-04-23 21:07 32.36417 -80.82225 37074 ft 479 kts 24°
2026-04-23 21:08 32.42441 -80.78825 37073 ft 479 kts 24°
2026-04-23 21:08 32.47442 -80.76001 37073 ft 479 kts 24°
2026-04-23 21:09 32.53457 -80.72603 37073 ft 479 kts 24°
2026-04-23 21:09 32.59468 -80.69200 37073 ft 479 kts 24°
2026-04-23 21:10 32.66459 -80.65238 37073 ft 478 kts 24°
2026-04-23 21:10 32.71489 -80.62383 37063 ft 478 kts 24°
2026-04-23 21:11 32.77462 -80.58894 37067 ft 479 kts 25°
2026-04-23 21:11 32.83376 -80.55346 37059 ft 478 kts 25°
2026-04-23 21:12 32.89314 -80.51790 37057 ft 478 kts 25°
2026-04-23 21:12 32.95260 -80.48243 37051 ft 478 kts 25°
2026-04-23 21:13 33.01218 -80.44692 37046 ft 478 kts 25°
2026-04-23 21:13 33.07175 -80.41132 37030 ft 478 kts 25°
2026-04-23 21:14 33.13086 -80.37595 37025 ft 478 kts 25°
2026-04-23 21:14 33.19036 -80.34029 37028 ft 478 kts 25°
2026-04-23 21:15 33.24988 -80.30459 37032 ft 478 kts 25°
2026-04-23 21:15 33.30950 -80.26877 37037 ft 478 kts 25°
2026-04-23 21:16 33.36886 -80.23300 37035 ft 477 kts 25°
2026-04-23 21:16 33.42784 -80.19737 37034 ft 477 kts 25°
2026-04-23 21:17 33.48718 -80.16150 37043 ft 477 kts 25°
2026-04-23 21:17 33.54659 -80.12558 37036 ft 478 kts 25°
2026-04-23 21:18 33.60600 -80.08963 37036 ft 478 kts 25°
2026-04-23 21:18 33.66537 -80.05365 37035 ft 478 kts 25°
2026-04-23 21:19 33.72461 -80.01764 37035 ft 478 kts 25°
2026-04-23 21:19 33.78398 -79.98150 37028 ft 478 kts 25°
2026-04-23 21:20 33.84295 -79.94556 37027 ft 477 kts 25°
2026-04-23 21:20 33.90214 -79.90942 37025 ft 477 kts 25°
2026-04-23 21:21 33.96142 -79.87318 37021 ft 477 kts 25°
2026-04-23 21:21 34.02061 -79.83694 37018 ft 477 kts 25°
2026-04-23 21:22 34.07977 -79.80064 37019 ft 476 kts 25°
2026-04-23 21:22 34.13860 -79.76450 37017 ft 477 kts 25°
2026-04-23 21:23 34.19778 -79.72815 37018 ft 477 kts 25°
2026-04-23 21:23 34.25699 -79.69166 37017 ft 477 kts 25°
2026-04-23 21:24 34.31618 -79.65512 37020 ft 477 kts 25°
2026-04-23 21:24 34.37524 -79.61861 37017 ft 476 kts 25°
2026-04-23 21:25 34.43430 -79.58211 37020 ft 476 kts 25°
2026-04-23 21:25 34.49292 -79.54573 37015 ft 476 kts 25°
2026-04-23 21:26 34.55192 -79.50904 37018 ft 476 kts 25°
2026-04-23 21:26 34.61032 -79.47097 37015 ft 476 kts 27°
2026-04-23 21:27 34.66818 -79.43136 37006 ft 477 kts 27°
2026-04-23 21:27 34.72606 -79.39188 37010 ft 477 kts 27°
2026-04-23 21:28 34.78405 -79.35253 37014 ft 477 kts 27°
2026-04-23 21:28 34.84174 -79.31339 37009 ft 477 kts 27°
2026-04-23 21:29 34.89972 -79.27402 37007 ft 477 kts 27°
2026-04-23 21:29 34.95765 -79.23464 37004 ft 477 kts 27°
2026-04-23 21:30 35.01561 -79.19515 36980 ft 477 kts 27°
2026-04-23 21:30 35.07351 -79.15565 36969 ft 477 kts 27°
2026-04-23 21:31 35.13148 -79.11605 36965 ft 476 kts 28°
2026-04-23 21:31 35.18896 -79.07673 36980 ft 476 kts 27°
2026-04-23 21:32 35.24686 -79.03704 36983 ft 476 kts 28°
2026-04-23 21:32 35.30470 -78.99732 36982 ft 476 kts 28°
2026-04-23 21:33 35.36263 -78.95747 36979 ft 476 kts 28°
2026-04-23 21:33 35.42005 -78.91791 36989 ft 476 kts 28°
2026-04-23 21:34 35.47786 -78.87805 36993 ft 476 kts 28°
2026-04-23 21:34 35.53565 -78.83809 36993 ft 476 kts 28°
2026-04-23 21:35 35.59343 -78.79808 36988 ft 476 kts 28°
2026-04-23 21:35 35.65121 -78.75804 36988 ft 476 kts 28°
2026-04-23 21:36 35.73780 -78.69791 36989 ft 476 kts 28°